CZ-11 R/B, 41847

Orbit data source: Space-Track

CZ-11 R/B, 41847 is space debris in SSO originally from a launch on Wed, 09 Nov 2016 UTC via a CHANG ZHENG 11 launch vehicle from the Jiuquan Satellite Launch Center, China (JSC). Debris objects in space refer to the collection of defunct objects orbiting the Earth. Examples of debris include non-operational satellites, rocket bodies, and fragments generated from explosions, collisions, or faulty payload assembly.

Loading next visibility...
Identifier
41847, 2016-066G
Orbit
SSO
Last TLE update
16 hours ago
Origin
Flag of CNXpeng Aeroht (CN / PRC)
Manufacturer
Kechuang Hangtian
Mission
Partially operational Commercial Technology
Bus & Motor
KS-1, Unknown motor
Mass
503 kg wet, 1 kg dry
Launch date (UTC)
2016-11-09 (9 years ago)
Launch vehicle
CHANG ZHENG 11
Launch site
Jiuquan Satellite Launch Center, China (JSC)
Object type
Payload
Rocket body
Debris
Shape & HBR
Box, Unknown HBR
Radar Cross Section
0.025 m², Large (>1 m²)

Expand to show TLE details & history

TLE from 16 hours ago
0 CZ-11 R/B
1 41847U 16066G   25181.75473245  .00001273  00000-0  18783-3 0  9990
2 41847  98.4196 256.0317 0347098 114.4055 249.3768 14.43545745454079
Epoch: 2025-06-30T18:06Z
TLE epoch observation values (Epoch: 2025-06-30T18:06:48.883Z)
Latitude
-0.00005°
Longitude
65.26803°
Altitude
844.275 km
Speed
7.381 km/s
True Right ascension
17h 04m 07s
True Declination
0° 00' 00"
Sunlit
Object was in full shadow at epoch
Visualization orbit readout
Latitude
-50.02924°
Longitude
76.06278°
Altitude
1,001.819 km
Speed
7.227 km/s
Apparent Right ascension
13h 52m 26s
Apparent Declination
-61° 46' 13"
Sunlit
Object is in full shadow
Visualization observer readout
Local Sidereal Time
22:08:40
Azimuth
217.768° SW
Elevation
-50.221°
Doppler factor
1
Orbital elements
Apogee altitude
991.12 km
Perigee altitude
496.71 km
Semi-major axis
7,122.052 km
Eccentricity
0.03471
Inclination
98.4196°
RAAN
256.0317°
Arg. of periapsis
114.4055°
True anomaly
Unknown
Mean anomaly
249.3768°
Eccentric anomaly
Unknown
Mean motion
3.61107 °/min
Orbital period
99.69 mins
BSTAR
0.00018783
Loading maneuver chart data...
Loading SW <> Apogee altitude chart data...
Loading historical data...
Loading historical data...
Loading historical data...
Loading historical data...
Loading historical data...
Loading historical data...
Loading historical data...

CZ-11 R/B Visibility forecast

Observer location: undefined°, undefined°

Span
Click to sort rows by Start time (UTC) header in descending order
Start Az.
Max El. time (UTC)
Max El. Az.
Max El.
End time (UTC)
End Az.
6 mins2025-07-01 17:58:12.771Z9.939° NNE2025-07-01 18:01:12.771Z299.167° NW44.434°2025-07-01 18:04:12.771Z199.143° SSW
7 mins2025-07-02 05:10:12.771Z178.432° S2025-07-02 05:14:12.771Z282.26° WNW41.244°2025-07-02 05:17:12.771Z337.156° NNW
|